TSIKADA

Satellite information

Favourite Embed

Satellite Type and Status

PAYLOADIN ORBIT

Key statistics

Satellite TSIKADA at a glance.

Uptime

11231

Days in orbit

Revolutions

≈ 13.7

Per day

Orbit

LEO

Low Earth Orbit

Inclination

82.9

Latest

Satellite identification and parameters

Extended collection of information and parameters for TSIKADA.

Object identification

Identified? True

Debris? False

Object name: TSIKADA

International designator: 1995-002A

Object number (NORAD): 23463

Object ID (CCSDS): 23463

Country: COMMONWEALTH OF INDEPENDENT STATES (CIS)

Current information (Y/N): Y

RCS size: LARGE

Orbital parameters

Period: 104.902 minutes

Inclination: 82.9304 deg

SMA: 7367.991 km

Apoapsis: 1019.529 km

Periapsis: 960.183 km

RAAN: 190.81 deg

Eccentricy: 0.00402729

Argument of periapsis: 76.7224 deg

Mean anomaly: 342.3164 deg

Mean motion: 13.72711157 rev/day

Mean motion (dot): 0.00000095 rev/day2

B* drag term: 0.000086117862 1/REarth

Two-line elements (TLE)

Creation date: Oct. 24, 2025, 2:48 a.m.

Reference frame: TEME

Reference center: EARTH

Epoch: Oct. 23, 2025, 4:39 p.m. UTC

TLE line 0: 0 TSIKADA

TLE line 1: 1 23463U 95002A 25296.69413012 .00000095 00000-0 86118-4 0 9996

TLE line 2: 2 23463 82.9304 190.8100 0040273 76.7224 342.3164 13.72711157539868

Live tracking on map

Real-time ground track for satellite TSIKADA.

In-orbit conjunctions

A list of the most updated potential collisions computed for object TSIKADA.

Target Orbit TCA Probability of collision Miss distance Type
COSMOS 249 DEB LEO 2025-04-25 21:23:29 0.0002066644 733.0 (m) DEBRIS

Associated space launch

Civilian navigation satellite equivalent to the purely military Parus

TSIKADA was lifted into orbit during the mission ‘Kosmos-3M | Tsikada 20’, on board a Kosmos-3M space rocket.

The launch took place on Jan. 24, 1995, 3:54 a.m. from 132/1 (132L).

For more information about the launch, click the button.

Launch to space Kosmos-3M | Tsikada 20
Kosmos-3M | Tsikada 20

Agency: N/A

Status: Launch Successful

Launch date: Jan. 24, 1995, 3:54 a.m. UTC

Rocket: Kosmos-3M

Launch pad: 132/1 (132L)

Location: Plesetsk Cosmodrome, Russian Federation

...

Latest news about this satellite

There are no fresh news available about this satellite. Check back as we update our databases every day.


Newsletter sign-up

Weekly statistics, charts and insights to help you stay on top of the space industry.